DLH423 KBOS-EDDF

Flight info

Callsign DLH423
Flight time N/A
Altitude 37000
Route LBSTA8 LBSTA DCT TOPPS N635A RIKAL/M078F390 NATV GISTI/N0456F390 DCT LONDU DCT WTD/N0454F410 DCT ENJEX DCT ADHAV DCT AXNEF DCT ZIPWE DCT OZZIL DCT SAWPE Q63 CPT UL9 BIG L607 KONAN UL607 SPI T180 NIVNU/N0354F230 T847 IMCOM IMCOM2C
Aircraft A343/H-SDE2E3FGHIJ3J5M1P2RWXYZ/LB1D1

Departure

Time N/A
Airport Boston Logan International Airport (KBOS)

Arrival

Time 2026-04-17 08:14
Airport Frankfurt Main Airport (EDDF)
Time Latitude Longitude Altitude Speed Heading
2026-04-17 07:47 50.50265 5.68321 30359 ft 472 kts 106°
2026-04-17 07:47 50.49347 5.73234 29811 ft 468 kts 105°
2026-04-17 07:48 50.48458 5.78133 29237 ft 465 kts 105°
2026-04-17 07:48 50.47578 5.82992 28677 ft 461 kts 106°
2026-04-17 07:48 50.46695 5.87814 28168 ft 457 kts 106°
2026-04-17 07:48 50.45810 5.92591 27637 ft 454 kts 106°
2026-04-17 07:49 50.44922 5.97325 27110 ft 450 kts 107°
2026-04-17 07:49 50.44037 6.02011 26619 ft 447 kts 107°
2026-04-17 07:49 50.43152 6.06671 26102 ft 444 kts 107°
2026-04-17 07:49 50.42269 6.11303 25617 ft 441 kts 107°
2026-04-17 07:50 50.41393 6.15887 25153 ft 438 kts 107°
2026-04-17 07:50 50.40522 6.20434 24869 ft 433 kts 107°
2026-04-17 07:50 50.39653 6.24961 24630 ft 434 kts 107°
2026-04-17 07:50 50.38784 6.29477 24388 ft 433 kts 107°
2026-04-17 07:51 50.37915 6.33986 24236 ft 431 kts 107°
2026-04-17 07:51 50.37052 6.38493 24213 ft 431 kts 107°
2026-04-17 07:51 50.36433 6.43076 24215 ft 431 kts 98°
2026-04-17 07:51 50.36039 6.47726 24216 ft 431 kts 96°
2026-04-17 07:52 50.35718 6.52386 24214 ft 430 kts 95°
2026-04-17 07:52 50.35426 6.57046 24213 ft 430 kts 95°
2026-04-17 07:52 50.35141 6.61708 24215 ft 430 kts 95°
2026-04-17 07:52 50.34855 6.66357 24218 ft 430 kts 95°
2026-04-17 07:53 50.34564 6.71014 24220 ft 430 kts 95°
2026-04-17 07:53 50.34273 6.75612 24224 ft 430 kts 95°
2026-04-17 07:53 50.33986 6.80263 24166 ft 427 kts 95°
2026-04-17 07:53 50.33622 6.84909 23679 ft 424 kts 101°
2026-04-17 07:54 50.32710 6.89288 23100 ft 422 kts 114°
2026-04-17 07:54 50.31731 6.93590 22552 ft 420 kts 103°
2026-04-17 07:54 50.31280 6.98088 21989 ft 417 kts 94°
2026-04-17 07:54 50.31091 7.02596 21513 ft 414 kts 92°
2026-04-17 07:55 50.30918 7.07003 21043 ft 410 kts 92°
2026-04-17 07:55 50.30733 7.11439 20551 ft 406 kts 94°
2026-04-17 07:55 50.30546 7.15829 20056 ft 403 kts 94°
2026-04-17 07:55 50.30382 7.20182 19580 ft 400 kts 94°
2026-04-17 07:56 50.30230 7.24564 19095 ft 396 kts 93°
2026-04-17 07:56 50.30092 7.28801 18635 ft 393 kts 93°
2026-04-17 07:56 50.29954 7.33107 18100 ft 390 kts 93°
2026-04-17 07:56 50.29820 7.37329 17584 ft 387 kts 93°
2026-04-17 07:57 50.29689 7.41465 17081 ft 384 kts 93°
2026-04-17 07:57 50.29554 7.45673 16572 ft 381 kts 93°
2026-04-17 07:57 50.29421 7.49798 16090 ft 378 kts 93°
2026-04-17 07:57 50.29289 7.53895 15617 ft 375 kts 93°
2026-04-17 07:58 50.29158 7.57896 15164 ft 373 kts 93°
2026-04-17 07:58 50.29025 7.61928 14705 ft 370 kts 94°
2026-04-17 07:58 50.28892 7.65926 14263 ft 367 kts 94°
2026-04-17 07:58 50.28757 7.69903 13794 ft 365 kts 94°
2026-04-17 07:59 50.28622 7.73895 13314 ft 361 kts 94°
2026-04-17 07:59 50.28487 7.77800 12850 ft 358 kts 94°
2026-04-17 07:59 50.28355 7.81625 12399 ft 355 kts 94°
2026-04-17 07:59 50.28220 7.85468 11937 ft 352 kts 94°
2026-04-17 08:00 50.28085 7.89277 11495 ft 349 kts 94°
2026-04-17 08:00 50.27950 7.93046 11094 ft 345 kts 94°
2026-04-17 08:00 50.27817 7.96736 10894 ft 335 kts 94°
2026-04-17 08:00 50.27687 8.00305 10717 ft 324 kts 94°
2026-04-17 08:01 50.27562 8.03767 10545 ft 315 kts 94°
2026-04-17 08:01 50.27440 8.07137 10374 ft 306 kts 94°
2026-04-17 08:01 50.27320 8.10428 10134 ft 301 kts 94°
2026-04-17 08:01 50.27200 8.13671 9814 ft 298 kts 95°
2026-04-17 08:02 50.27081 8.16888 9480 ft 295 kts 95°
2026-04-17 08:02 50.26961 8.20082 9146 ft 293 kts 95°
2026-04-17 08:02 50.26841 8.23244 8791 ft 291 kts 95°
2026-04-17 08:02 50.26720 8.26390 8450 ft 289 kts 95°
2026-04-17 08:03 50.26599 8.29517 8110 ft 287 kts 96°
2026-04-17 08:03 50.26478 8.32621 7763 ft 285 kts 95°
2026-04-17 08:03 50.26357 8.35697 7434 ft 283 kts 96°
2026-04-17 08:03 50.26235 8.38764 7097 ft 282 kts 96°
2026-04-17 08:04 50.26113 8.41809 6775 ft 280 kts 96°
2026-04-17 08:04 50.25991 8.44831 6419 ft 278 kts 96°
2026-04-17 08:04 50.25869 8.47833 6108 ft 276 kts 96°
2026-04-17 08:04 50.25749 8.50823 5845 ft 275 kts 96°
2026-04-17 08:05 50.25627 8.53801 5593 ft 274 kts 96°
2026-04-17 08:05 50.25504 8.56768 5344 ft 273 kts 96°
2026-04-17 08:05 50.25381 8.59719 5098 ft 271 kts 96°
2026-04-17 08:05 50.25258 8.62647 5003 ft 270 kts 96°
2026-04-17 08:06 50.25135 8.65577 4998 ft 270 kts 96°
2026-04-17 08:06 50.25011 8.68510 4995 ft 270 kts 96°
2026-04-17 08:06 50.24886 8.71434 4997 ft 270 kts 96°
2026-04-17 08:06 50.24760 8.74362 4994 ft 270 kts 96°
2026-04-17 08:07 50.24634 8.77285 4994 ft 270 kts 96°
2026-04-17 08:07 50.24507 8.80211 4989 ft 270 kts 96°
2026-04-17 08:07 50.24346 8.83130 4709 ft 269 kts 101°
2026-04-17 08:07 50.23653 8.85729 4574 ft 256 kts 131°
2026-04-17 08:08 50.22288 8.87350 4480 ft 242 kts 158°
2026-04-17 08:08 50.20739 8.88265 4287 ft 236 kts 163°
2026-04-17 08:08 50.19190 8.89050 4067 ft 232 kts 164°
2026-04-17 08:08 50.17671 8.89804 3996 ft 228 kts 165°
2026-04-17 08:09 50.16154 8.90534 3991 ft 228 kts 167°
2026-04-17 08:09 50.14610 8.90539 3992 ft 220 kts 199°
2026-04-17 08:09 50.13343 8.89361 3983 ft 207 kts 221°
2026-04-17 08:09 50.12304 8.87900 3979 ft 195 kts 224°
2026-04-17 08:10 50.11354 8.86494 3971 ft 182 kts 224°
2026-04-17 08:10 50.10512 8.85074 3849 ft 176 kts 237°
2026-04-17 08:10 50.09953 8.83395 3689 ft 174 kts 248°
2026-04-17 08:10 50.09514 8.81634 3505 ft 175 kts 249°
2026-04-17 08:11 50.09061 8.79831 3234 ft 183 kts 245°
2026-04-17 08:11 50.08599 8.77957 2968 ft 187 kts 249°
2026-04-17 08:11 50.08152 8.76023 2715 ft 192 kts 249°
2026-04-17 08:11 50.07707 8.74087 2496 ft 184 kts 248°
2026-04-17 08:12 50.07276 8.72288 2238 ft 172 kts 248°
2026-04-17 08:12 50.06869 8.70599 1993 ft 159 kts 248°
2026-04-17 08:12 50.06490 8.69061 1782 ft 145 kts 248°
2026-04-17 08:12 50.06143 8.67637 1599 ft 139 kts 248°
2026-04-17 08:13 50.05804 8.66239 1426 ft 137 kts 248°
2026-04-17 08:13 50.05474 8.64860 1255 ft 135 kts 249°
2026-04-17 08:13 50.05149 8.63480 1047 ft 136 kts 250°
2026-04-17 08:14 50.04500 8.60724 676 ft 136 kts 250°
2026-04-17 08:14 50.04165 8.59346 481 ft 136 kts 250°
2026-04-17 08:14 50.03838 8.57978 371 ft 129 kts 250°
2026-04-17 08:14 50.03628 8.57068 359 ft 47 kts 250°
2026-04-17 08:15 50.03518 8.56611 364 ft 45 kts 250°
2026-04-17 08:15 50.03449 8.56302 359 ft 23 kts 256°
2026-04-17 08:15 50.03440 8.56049 358 ft 24 kts 274°
2026-04-17 08:15 50.03456 8.55864 351 ft 15 kts 280°
2026-04-17 08:16 50.03477 8.55688 353 ft 17 kts 280°
2026-04-17 08:16 50.03490 8.55497 349 ft 18 kts 266°
2026-04-17 08:16 50.03451 8.55301 353 ft 20 kts 250°
2026-04-17 08:16 50.03412 8.55135 352 ft 11 kts 250°
2026-04-17 08:17 50.03393 8.55004 353 ft 14 kts 272°
2026-04-17 08:17 50.03434 8.54869 356 ft 14 kts 319°
2026-04-17 08:17 50.03525 8.54806 357 ft 15 kts 339°
2026-04-17 08:17 50.03601 8.54761 356 ft 11 kts 339°
2026-04-17 08:18 50.03676 8.54718 356 ft 12 kts 340°
2026-04-17 08:18 50.03749 8.54741 360 ft 11 kts 44°
2026-04-17 08:18 50.03784 8.54849 359 ft 12 kts 69°
2026-04-17 08:18 50.03817 8.54980 360 ft 15 kts 69°
2026-04-17 08:19 50.03859 8.55154 363 ft 19 kts 70°
2026-04-17 08:19 50.03910 8.55368 361 ft 23 kts 70°
2026-04-17 08:19 50.03967 8.55605 362 ft 24 kts 69°
2026-04-17 08:19 50.04025 8.55851 364 ft 24 kts 70°
2026-04-17 08:20 50.04084 8.56099 364 ft 24 kts 70°
2026-04-17 08:20 50.04143 8.56348 364 ft 25 kts 70°
2026-04-17 08:20 50.04203 8.56596 364 ft 24 kts 69°
2026-04-17 08:20 50.04261 8.56835 367 ft 23 kts 69°
2026-04-17 08:21 50.04318 8.57073 370 ft 24 kts 70°
2026-04-17 08:21 50.04376 8.57314 372 ft 24 kts 69°
2026-04-17 08:21 50.04435 8.57562 372 ft 24 kts 69°
2026-04-17 08:21 50.04493 8.57802 372 ft 19 kts 69°
2026-04-17 08:22 50.04518 8.57906 372 ft 10 kts 69°
2026-04-17 08:22 50.04560 8.58009 371 ft 12 kts 28°
2026-04-17 08:22 50.04662 8.57985 369 ft 17 kts 338°
2026-04-17 08:22 50.04766 8.57924 366 ft 13 kts 339°
2026-04-17 08:23 50.04843 8.57843 370 ft 14 kts 306°
2026-04-17 08:23 50.04879 8.57721 367 ft 7 kts 293°
2026-04-17 08:23 50.04899 8.57647 366 ft 8 kts 293°
2026-04-17 08:23 50.04905 8.57576 360 ft 6 kts 247°
2026-04-17 08:24 50.04871 8.57535 368 ft 3 kts 210°
2026-04-17 08:24 50.04858 8.57525 367 ft 0 kts 207°